Temperature
22 22 22 23 23 23 22 22 22 22 21 21 20 20 19 19 19 18 18 18 18 17 17 17 17 17 17 17 17 16 16 16 16 16 16 16 15 15 15 16 16 16 16
20 22 22 23 23 23 23 23 22 22 22 21 21 20 20 19 19 18 18 18 17 17 17 17 17 17 17 17 17 17 16 16 16 16 16 15 15 15 15 15 15 16 16
18 20 22 23 23 23 24 23 23 22 22 21 21 20 20 19 19 18 18 18 18 17 17 17 17 17 17 17 17 16 16 16 16 15 15 15 16 15 15 15 15 15 15
17 19 21 22 22 23 23 23 22 22 22 21 20 20 20 20 19 19 18 18 17 17 17 17 17 17 17 16 16 16 16 15 15 15 15 15 16 15 15 15 15 15 15
16 17 19 20 21 21 21 21 21 21 21 20 20 19 19 19 19 18 18 17 17 17 17 17 16 16 16 16 16 16 16 15 15 15 15 14 15 15 15 15 15 15 15
15 16 17 18 19 19 20 19 19 19 19 18 18 19 19 19 18 18 17 17 17 17 17 16 16 16 16 16 16 15 15 15 15 15 15 15 14 15 15 15 15 15 15
14 15 16 16 17 17 17 18 18 17 17 17 17 18 18 18 18 17 17 17 17 17 16 16 16 16 16 16 15 15 15 15 15 15 15 15 15 15 15 15 15 15 15
13 14 15 15 16 16 16 16 16 16 16 16 17 17 17 17 17 17 17 17 16 16 16 16 16 16 15 15 15 15 14 14 14 14 14 14 14 14 14 14 14 14 14
13 14 14 15 15 14 14 15 15 15 15 16 17 17 17 17 17 17 17 17 16 16 16 16 16 16 15 15 15 15 14 14 14 14 14 14 14 14 14 14 14 14 14
13 14 14 14 14 14 14 14 14 15 15 16 17 17 17 17 17 17 17 16 16 16 16 16 16 15 15 14 14 14 14 14 14 14 14 14 14 14 14 14 14 14 14
13 14 14 14 14 14 14 14 15 15 16 16 17 17 17 17 17 17 17 17 16 16 16 16 15 15 15 14 14 14 14 14 14 14 13 13 13 13 13 13 13 13 13
13 14 14 14 14 14 15 15 15 16 16 17 17 17 17 17 17 17 17 17 16 16 16 16 15 15 15 14 14 14 14 14 14 13 13 13 13 13 13 13 13 13 13
13 14 14 15 15 15 16 16 16 16 16 17 17 17 17 17 17 17 17 17 17 16 16 16 15 15 15 14 14 14 14 14 14 14 13 13 13 13 13 13 13 13 13
12 13 14 14 15 15 16 17 17 17 17 17 17 17 17 17 17 17 17 17 17 16 16 16 15 15 15 15 14 14 14 14 14 14 13 13 13 13 12 13 13 13 13
12 12 13 13 14 15 16 16 17 17 17 17 17 17 17 17 17 17 17 17 17 16 16 16 16 15 15 15 14 14 14 14 14 14 13 13 13 13 12 12 12 12 12
12 13 13 13 14 14 15 15 16 16 16 16 16 16 16 16 16 16 16 16 16 16 16 16 16 15 15 15 15 14 14 14 14 14 14 13 13 13 13 12 12 12 12
12 13 13 13 13 13 14 14 14 15 15 15 15 15 15 16 16 16 16 16 16 16 16 16 15 15 15 15 15 14 14 14 14 14 14 13 13 13 13 13 13 13 12
13 13 13 13 13 13 13 13 13 13 13 14 14 14 14 14 14 15 15 15 15 15 15 15 14 14 14 14 14 14 14 14 14 14 14 14 14 13 13 13 13 13 13
13 13 13 13 13 13 13 13 13 12 12 12 13 13 13 13 13 13 13 13 13 13 13 13 13 13 14 14 14 14 14 14 14 14 14 14 14 13 13 13 13 13 13
14 14 13 13 13 13 13 13 12 12 12 12 12 12 12 12 12 12 12 12 12 12 12 12 12 12 13 13 13 13 13 13 13 13 14 14 14 14 13 13 13 13 13
14 14 14 14 14 14 13 13 13 12 12 12 11 11 11 11 11 11 11 11 11 11 11 11 11 12 12 12 12 12 13 13 13 13 13 13 13 13 13 13 13 13 13
14 14 14 14 14 14 14 13 13 12 12 12 11 11 11 11 11 11 11 11 11 11 11 11 11 11 11 12 12 12 12 12 12 12 13 13 13 13 13 13 13 13 13
15 15 15 15 15 14 14 14 13 13 12 12 12 11 11 11 11 11 11 11 11 11 11 11 11 11 11 11 11 11 11 11 12 12 12 12 12 13 13 13 13 13 13
15 15 15 15 15 15 15 14 14 13 13 12 12 11 11 11 11 11 11 11 11 11 11 11 11 11 11 11 11 11 11 11 11 11 12 12 12 12 12 13 13 13 13
15 15 15 16 16 15 15 15 14 14 13 12 12 11 11 11 11 11 11 10 10 10 10 10 10 10 10 10 10 10 10 11 11 11 11 11 11 11 12 12 12 12 12
15 15 16 16 16 16 16 15 15 14 13 13 12 12 11 11 11 11 11 10 10 10 10 10 10 10 10 10 10 10 10 10 10 10 10 10 10 10 11 11 11 11 11
Wind_Speed
10 10 13 14 13 12 13 14 14 12 10 7 6 5 5 5 4 5 7 9 9 10 8 4 5 5 5 5 5 4 4 3 3 3 2 2 2 0 1 0 0 1 2
12 10 10 13 17 17 16 15 15 13 13 10 6 4 3 3 3 3 4 8 8 8 7 6 6 6 5 5 6 4 4 3 4 4 3 1 3 2 0 1 2 2 1
14 12 10 12 15 17 17 15 14 12 11 9 6 4 4 3 3 3 3 4 6 7 6 6 5 6 6 6 7 6 6 4 2 2 4 4 4 2 2 2 2 2 2
15 12 9 8 11 13 12 11 11 9 7 8 8 6 6 5 5 4 4 4 5 6 6 6 6 6 5 6 7 7 5 5 4 2 1 2 4 3 1 2 2 2 4
16 12 9 4 1 3 6 8 9 8 6 4 4 4 3 3 3 3 5 4 4 4 5 5 5 6 5 6 6 7 7 6 6 5 3 2 1 2 3 2 2 2 3
16 13 11 9 8 9 10 11 12 11 8 4 1 3 5 5 5 4 4 3 3 3 4 4 4 5 4 5 6 6 8 8 7 6 5 5 4 4 3 3 2 3 3
14 13 11 10 9 10 10 12 13 12 7 2 2 3 5 6 6 5 5 4 3 2 4 4 4 3 4 4 4 5 6 7 8 9 7 6 5 4 4 4 3 2 2
12 12 10 8 8 9 9 11 14 9 3 2 3 3 4 4 3 4 4 4 3 3 4 4 4 3 3 3 4 4 5 5 8 9 9 6 6 5 5 5 5 2 2
13 11 8 8 7 8 9 10 10 4 2 4 4 3 4 4 4 3 3 3 3 3 4 4 4 3 2 2 3 2 4 4 6 7 8 6 6 6 6 5 5 5 3
13 11 7 7 8 8 7 7 4 2 5 5 4 3 3 4 4 4 4 4 4 4 5 4 4 3 2 2 2 2 2 3 3 4 6 6 5 6 6 7 6 6 6
11 8 5 6 8 7 5 3 3 5 5 4 3 3 2 3 3 3 3 4 4 5 5 5 5 4 3 3 2 1 1 2 2 3 4 6 6 6 7 7 7 7 7
9 5 4 4 3 1 3 5 5 4 4 3 3 2 2 2 3 2 3 4 4 5 5 6 5 5 5 4 4 3 2 2 1 2 2 3 4 6 6 7 9 8 8
11 9 6 4 2 3 5 5 4 4 4 3 3 3 2 2 2 2 3 4 4 5 5 5 5 5 5 5 5 4 3 3 2 2 2 2 3 4 5 6 7 8 8
13 12 10 7 5 5 5 4 2 2 4 4 3 2 2 2 2 2 2 3 4 5 5 6 6 5 5 5 5 5 4 4 3 3 3 2 3 3 3 4 5 6 7
14 13 11 9 8 8 8 8 7 5 3 4 2 1 1 1 1 1 2 2 3 4 5 5 6 5 5 6 7 6 6 5 4 3 3 3 4 4 4 3 3 4 5
13 12 11 11 11 11 10 10 10 10 9 9 7 6 5 5 4 4 3 3 2 2 3 5 5 5 5 8 11 9 6 6 6 5 4 4 4 5 5 6 5 5 4
11 10 10 9 9 9 9 10 9 9 10 10 9 9 8 8 8 7 6 6 5 3 2 2 3 5 6 9 9 12 7 7 6 6 5 3 4 5 4 5 6 6 7
10 9 8 8 8 7 7 7 8 8 9 9 9 9 9 8 8 8 8 7 5 5 4 4 3 3 5 6 8 8 7 6 6 6 6 5 5 5 5 5 5 5 5
7 5 5 5 6 7 7 7 8 8 8 8 8 8 8 8 8 8 7 6 6 6 5 5 5 4 5 7 5 4 4 4 5 5 6 6 6 8 7 5 5 6 6
6 5 5 5 6 7 6 7 7 7 8 7 7 7 7 7 7 7 6 5 5 6 6 7 7 7 7 11 10 3 2 3 3 3 4 7 8 8 7 6 6 7 6
5 4 5 5 5 6 6 7 6 6 5 5 6 7 7 6 6 6 6 6 6 7 7 7 7 8 9 11 14 9 2 1 2 2 2 3 6 8 7 8 7 8 4
7 5 5 5 5 4 4 5 5 5 3 4 5 6 6 6 6 6 7 7 7 8 8 7 7 7 8 10 12 13 9 4 0 1 2 3 5 5 4 4 6 7 5
7 5 4 6 6 4 2 3 4 3 1 3 4 4 5 5 6 6 7 6 7 6 6 6 7 7 6 8 13 13 11 9 3 2 3 3 3 2 2 1 3 5 4
6 5 5 5 6 5 3 3 3 0 1 1 2 3 4 5 5 5 5 5 6 6 6 6 6 6 6 6 7 7 6 6 4 3 4 6 7 6 6 6 5 4 3
6 5 5 6 7 6 5 4 2 2 2 1 1 2 3 3 3 3 3 4 3 4 4 4 5 6 7 8 11 7 5 4 2 2 2 3 3 4 4 4 5 4 4
7 7 7 7 7 6 6 5 3 4 3 1 1 1 2 2 2 2 2 2 2 5 6 7 7 5 7 10 10 11 9 6 3 3 3 3 4 4 4 4 4 4 4
Wind_Direction
275 258 238 223 214 210 201 197 195 185 172 168 174 181 197 194 195 192 192 193 196 197 195 199 191 182 194 193 182 161 158 145 140 111 72 21 25 59 217 329 349 345 47
301 285 257 230 214 210 205 199 197 188 184 186 175 165 154 169 177 170 177 187 187 188 191 186 187 187 189 184 180 167 158 158 158 140 123 61 335 314 253 215 214 239 276
312 301 279 240 223 215 206 199 193 188 186 167 141 113 100 97 130 172 186 186 184 183 184 183 182 186 182 187 185 179 170 170 180 161 149 158 210 259 300 263 217 214 235
330 317 301 263 227 217 201 184 170 165 161 148 163 171 175 182 192 176 169 164 176 182 185 181 180 184 186 191 190 183 174 164 177 183 161 153 154 155 249 303 265 221 229
343 344 341 322 262 155 127 127 124 113 108 120 169 187 170 157 138 137 155 158 164 174 178 180 182 189 193 196 190 181 183 181 178 175 163 139 128 134 149 245 297 292 246
351 0 13 28 48 69 87 98 99 90 80 74 202 202 171 156 153 159 160 154 150 159 172 177 184 193 196 198 195 192 191 195 191 191 184 172 172 179 160 178 236 262 269
355 1 19 27 41 59 75 89 88 77 61 29 253 211 184 172 173 171 168 156 155 167 180 170 176 188 199 199 191 193 202 199 201 204 205 198 191 165 158 162 183 232 274
359 3 19 32 45 55 66 83 85 81 57 274 247 213 178 168 168 167 163 170 177 177 172 168 169 177 183 187 187 197 207 204 210 215 211 204 199 180 178 171 164 190 268
353 359 14 34 51 62 67 79 91 101 249 242 228 197 179 170 170 166 166 172 172 167 162 155 144 142 153 168 175 205 216 208 210 214 212 207 200 193 194 186 175 175 211
349 353 16 42 51 54 54 63 79 232 248 232 213 194 186 181 173 167 173 175 170 159 150 145 145 149 154 157 167 202 213 207 211 206 206 210 205 201 200 201 195 191 197
341 346 29 56 55 42 17 339 267 249 243 220 200 181 178 174 166 166 168 166 166 164 163 165 169 175 177 174 168 191 189 197 218 214 208 213 205 208 210 207 202 204 203
354 6 62 81 67 11 286 271 263 246 232 203 178 157 155 147 145 151 158 165 174 181 182 176 179 184 184 183 185 197 184 181 209 228 220 227 218 214 213 211 212 211 208
20 33 43 42 354 304 284 279 271 253 227 196 168 149 155 155 161 175 176 180 188 193 194 190 195 198 193 191 193 194 190 189 203 211 215 233 227 227 221 218 219 216 213
31 37 35 28 9 350 337 324 304 232 199 168 159 163 182 201 205 205 204 204 199 200 206 211 213 211 203 197 192 192 194 192 198 202 205 212 219 236 241 235 230 221 215
28 31 33 29 24 24 23 25 27 34 68 92 81 49 352 350 7 336 292 264 231 221 213 215 222 217 209 206 195 194 196 196 202 207 211 219 226 234 232 232 233 225 227
16 17 25 28 31 32 31 34 37 38 48 54 44 30 28 29 23 2 339 328 306 268 230 224 225 222 228 224 207 192 192 197 204 215 226 240 249 258 259 252 233 216 220
1 7 13 17 20 21 25 30 28 33 44 46 39 31 29 31 24 19 19 11 356 346 308 267 245 245 250 251 235 210 191 196 203 208 216 234 239 248 248 263 260 247 236
348 353 1 8 10 13 19 25 29 33 37 35 30 24 24 24 20 24 22 12 8 8 358 347 325 296 293 281 253 231 202 199 206 206 208 223 248 247 237 242 252 252 246
329 337 351 359 5 8 7 29 29 28 31 26 21 15 17 20 21 19 11 6 9 14 12 9 9 3 347 347 313 250 190 203 212 209 209 216 238 254 243 223 240 256 258
334 345 352 3 6 356 4 31 23 24 20 13 10 11 17 23 22 16 13 11 20 22 26 32 28 25 13 11 10 346 174 200 209 208 220 229 237 255 247 212 218 239 249
333 351 2 357 343 344 7 21 15 9 357 7 18 21 20 27 28 28 27 25 29 33 31 30 25 23 17 14 18 24 39 221 220 227 237 248 259 268 262 220 212 226 215
341 347 347 337 330 343 5 7 356 338 358 29 31 25 22 27 30 35 32 31 32 35 26 20 15 12 8 10 11 16 19 19 320 278 282 281 292 294 287 227 214 212 180
332 329 324 323 324 328 333 339 326 333 40 45 31 18 21 27 29 36 33 31 32 32 25 19 13 3 359 1 9 11 11 13 14 348 329 326 341 29 24 69 151 146 140
324 322 317 316 312 310 297 280 296 223 135 57 16 9 14 19 28 34 33 35 30 25 20 15 7 359 355 357 358 356 355 360 12 23 45 62 70 70 65 64 70 80 107
315 315 307 295 291 296 288 275 242 172 172 192 4 9 11 16 30 39 31 25 25 13 5 360 356 354 353 345 343 346 339 338 343 35 64 62 64 64 59 59 60 59 66
312 314 310 300 293 290 281 268 220 185 185 218 341 7 2 9 33 38 20 359 345 355 7 6 1 340 336 341 357 4 7 16 44 64 68 69 69 66 61 62 59 53 55
Height
1488 1488 1489 1491 1494 1496 1499 1501 1503 1506 1508 1510 1513 1515 1517 1520 1522 1524 1526 1528 1529 1531 1533 1535 1536 1538 1540 1542 1543 1545 1546 1548 1549 1550 1551 1552 1552 1553 1553 1554 1554 1554 1554
1483 1482 1483 1484 1486 1489 1492 1495 1498 1502 1505 1507 1510 1513 1515 1518 1520 1522 1524 1525 1527 1528 1530 1531 1533 1535 1536 1538 1539 1540 1542 1544 1546 1548 1549 1550 1551 1550 1551 1552 1552 1553 1553
1481 1478 1477 1477 1479 1481 1485 1488 1492 1497 1501 1505 1508 1511 1513 1515 1518 1519 1521 1523 1525 1526 1527 1528 1530 1531 1533 1534 1535 1536 1538 1540 1542 1544 1546 1547 1547 1548 1549 1549 1550 1551 1552
1478 1475 1473 1472 1473 1475 1478 1482 1487 1492 1498 1502 1506 1508 1510 1512 1515 1517 1519 1521 1522 1524 1525 1526 1527 1528 1529 1530 1531 1531 1533 1535 1538 1540 1541 1544 1544 1545 1546 1547 1548 1549 1550
1478 1473 1470 1469 1469 1470 1474 1478 1482 1487 1494 1500 1504 1508 1509 1511 1513 1514 1516 1518 1519 1521 1522 1523 1524 1525 1525 1526 1526 1527 1529 1531 1533 1535 1536 1538 1540 1542 1543 1544 1545 1546 1548
1479 1474 1471 1469 1468 1468 1471 1474 1479 1484 1491 1497 1503 1506 1508 1509 1510 1512 1513 1515 1517 1518 1519 1520 1521 1521 1522 1522 1522 1523 1524 1526 1528 1529 1531 1532 1535 1537 1539 1540 1542 1543 1545
1481 1477 1473 1472 1471 1471 1471 1472 1476 1481 1488 1495 1502 1505 1507 1508 1509 1510 1511 1513 1514 1516 1517 1518 1518 1518 1518 1518 1518 1519 1520 1521 1522 1524 1525 1527 1529 1532 1534 1537 1538 1540 1542
1484 1479 1476 1474 1473 1473 1472 1472 1475 1482 1488 1495 1501 1504 1506 1507 1508 1509 1510 1511 1513 1514 1515 1515 1515 1515 1515 1515 1515 1515 1516 1517 1517 1518 1520 1521 1523 1526 1529 1532 1535 1537 1538
1485 1481 1478 1476 1475 1475 1474 1474 1477 1484 1490 1496 1500 1503 1505 1506 1507 1508 1510 1511 1512 1512 1513 1513 1513 1513 1513 1512 1512 1512 1512 1512 1513 1514 1515 1517 1519 1521 1524 1527 1530 1533 1534
1486 1483 1480 1478 1476 1477 1478 1478 1483 1489 1493 1497 1499 1502 1504 1506 1507 1508 1509 1510 1510 1510 1511 1510 1511 1511 1511 1511 1510 1510 1509 1509 1509 1510 1511 1513 1515 1517 1519 1522 1525 1527 1530
1488 1485 1483 1481 1481 1481 1484 1485 1489 1492 1494 1497 1499 1501 1503 1505 1506 1506 1507 1508 1508 1508 1508 1508 1509 1509 1509 1509 1509 1508 1507 1507 1507 1507 1508 1510 1511 1513 1515 1517 1519 1521 1524
1489 1487 1486 1485 1486 1487 1489 1490 1492 1493 1495 1496 1498 1500 1502 1503 1504 1504 1505 1506 1506 1506 1507 1507 1507 1507 1508 1508 1508 1507 1506 1505 1505 1505 1506 1507 1508 1509 1510 1512 1513 1516 1518
1491 1489 1489 1489 1489 1489 1490 1490 1491 1492 1493 1495 1497 1499 1500 1501 1502 1503 1503 1503 1504 1504 1505 1505 1505 1506 1506 1506 1506 1506 1505 1504 1504 1504 1504 1504 1505 1506 1506 1507 1509 1510 1512
1496 1493 1492 1491 1491 1490 1489 1489 1489 1490 1492 1494 1495 1496 1497 1498 1499 1500 1500 1501 1501 1502 1503 1503 1504 1504 1504 1504 1505 1505 1504 1504 1503 1503 1503 1502 1503 1503 1503 1504 1505 1506 1507
1501 1499 1497 1496 1494 1492 1491 1490 1489 1490 1491 1492 1492 1493 1494 1495 1496 1496 1497 1498 1498 1499 1500 1500 1501 1501 1502 1502 1503 1503 1503 1502 1502 1502 1502 1502 1502 1502 1502 1502 1503 1503 1504
1507 1505 1502 1500 1498 1496 1494 1493 1491 1491 1491 1491 1491 1492 1492 1492 1492 1493 1494 1494 1495 1496 1496 1497 1497 1497 1498 1499 1500 1500 1500 1501 1501 1501 1501 1501 1501 1501 1501 1501 1501 1501 1501
1513 1510 1507 1505 1502 1501 1499 1497 1495 1494 1493 1492 1491 1491 1490 1490 1490 1490 1491 1491 1492 1492 1493 1493 1493 1494 1495 1495 1496 1497 1497 1498 1498 1499 1499 1500 1500 1500 1500 1500 1500 1500 1500
1518 1515 1513 1510 1508 1506 1504 1502 1500 1497 1495 1493 1492 1490 1490 1489 1489 1488 1489 1489 1489 1489 1489 1489 1489 1489 1490 1491 1492 1492 1493 1494 1495 1496 1497 1498 1499 1499 1499 1499 1499 1499 1498
1522 1520 1518 1515 1513 1511 1509 1506 1503 1500 1498 1496 1494 1492 1491 1489 1489 1488 1488 1488 1488 1487 1486 1486 1485 1485 1486 1486 1487 1488 1489 1490 1492 1493 1493 1495 1496 1497 1497 1497 1497 1497 1497
1525 1524 1522 1520 1517 1514 1512 1510 1507 1504 1502 1499 1497 1495 1493 1492 1491 1490 1490 1489 1488 1487 1486 1484 1483 1483 1483 1483 1483 1484 1485 1486 1488 1489 1490 1491 1492 1494 1494 1495 1495 1496 1496
1528 1526 1525 1522 1520 1518 1515 1513 1511 1508 1506 1504 1501 1499 1497 1496 1495 1494 1493 1491 1490 1488 1487 1485 1484 1483 1482 1482 1481 1481 1482 1483 1484 1485 1486 1487 1489 1490 1491 1492 1493 1493 1494
1529 1528 1526 1525 1523 1521 1519 1516 1514 1512 1510 1507 1505 1503 1501 1500 1498 1497 1495 1494 1492 1490 1488 1487 1485 1484 1482 1481 1480 1480 1480 1480 1481 1482 1483 1484 1485 1486 1487 1489 1490 1491 1491
1530 1529 1528 1526 1525 1523 1521 1519 1517 1514 1512 1510 1508 1506 1504 1502 1501 1499 1498 1496 1493 1491 1489 1487 1485 1484 1482 1481 1480 1479 1478 1478 1478 1479 1480 1481 1482 1483 1484 1486 1487 1488 1489
1531 1530 1528 1527 1526 1524 1522 1520 1518 1516 1514 1512 1510 1508 1506 1504 1503 1501 1499 1496 1494 1492 1490 1488 1486 1484 1483 1481 1479 1478 1477 1477 1477 1477 1478 1478 1480 1481 1482 1484 1485 1486 1487
1531 1529 1528 1526 1525 1524 1522 1521 1519 1517 1515 1513 1511 1510 1508 1506 1504 1502 1500 1497 1495 1493 1492 1490 1488 1486 1483 1482 1480 1478 1476 1476 1476 1476 1477 1478 1479 1480 1482 1483 1484 1486 1487
1530 1529 1527 1525 1524 1523 1522 1520 1518 1517 1515 1514 1512 1510 1508 1507 1505 1503 1501 1499 1497 1495 1494 1492 1490 1488 1486 1483 1481 1479 1477 1476 1476 1476 1477 1478 1480 1481 1483 1484 1485 1486 1487